| time (UTC) | temp F | wind direction | speed knots | gust knots | rain 1hr in | rain 24hr in | rain mn in | humidity % | barometer mb |
| 20260506170033 | 63 | 146 | 0.9 | 2.6 | 0.00 | 0.00 | 0.00 | 82 | 1022.5 |
| 20260506165029 | 62 | 292 | 0.0 | 1.7 | 0.00 | 0.00 | 0.00 | 82 | 1022.4 |
| 20260506164027 | 61 | 276 | 0.9 | 2.6 | 0.00 | 0.00 | 0.00 | 84 | 1022.5 |
| 20260506163024 | 61 | 207 | 0.9 | 1.7 | 0.00 | 0.00 | 0.00 | 86 | 1022.5 |
| 20260506162020 | 60 | 0.0 | 0.0 | 0.00 | 0.00 | 0.00 | 86 | 1022.5 | |
| 20260506161017 | 60 | 262 | 0.9 | 2.6 | 0.00 | 0.00 | 0.00 | 86 | 1022.5 |
| 20260506160034 | 59 | 0.0 | 0.0 | 0.00 | 0.00 | 0.00 | 87 | 1022.5 | |
| 20260506155029 | 59 | 304 | 0.0 | 1.7 | 0.00 | 0.00 | 0.00 | 87 | 1022.6 |
| 20260506154047 | 58 | 305 | 0.9 | 1.7 | 0.00 | 0.00 | 0.00 | 88 | 1022.5 |
| 20260506153023 | 58 | 305 | 0.9 | 1.7 | 0.00 | 0.00 | 0.00 | 88 | 1022.6 |
| 20260506152019 | 58 | 328 | 0.0 | 0.9 | 0.00 | 0.00 | 0.00 | 88 | 1022.5 |
| 20260506151036 | 57 | 329 | 0.9 | 1.7 | 0.00 | 0.00 | 0.00 | 89 | 1022.4 |
| 20260506150033 | 57 | 339 | 1.7 | 3.5 | 0.00 | 0.00 | 0.00 | 89 | 1022.5 |
| 20260506145029 | 57 | 295 | 0.0 | 1.7 | 0.00 | 0.00 | 0.00 | 89 | 1022.5 |
| 20260506144147 | 56 | 319 | 0.0 | 2.6 | 0.00 | 0.00 | 0.00 | 89 | 1022.4 |
| 20260506143023 | 56 | 0.0 | 0.0 | 0.00 | 0.00 | 0.00 | 89 | 1022.4 | |
| 20260506142019 | 56 | 0.0 | 0.0 | 0.00 | 0.00 | 0.00 | 89 | 1022.2 | |
| 20260506141016 | 56 | 0.0 | 0.0 | 0.00 | 0.00 | 0.00 | 89 | 1022.1 | |
| 20260506140033 | 56 | 0.0 | 0.0 | 0.00 | 0.00 | 0.00 | 89 | 1022.0 | |
| 20260506135030 | 56 | 0.0 | 0.0 | 0.00 | 0.00 | 0.00 | 89 | 1022.1 | |
| 20260506134026 | 56 | 302 | 0.0 | 0.9 | 0.00 | 0.00 | 0.00 | 89 | 1021.9 |
| 20260506133023 | 56 | 0.0 | 0.0 | 0.00 | 0.00 | 0.00 | 89 | 1021.9 | |
| 20260506132019 | 56 | 0.0 | 0.0 | 0.00 | 0.00 | 0.00 | 89 | 1021.8 | |
| 20260506131016 | 56 | 0.0 | 0.0 | 0.00 | 0.00 | 0.00 | 89 | 1021.7 | |
| 20260506130033 | 56 | 0.0 | 0.0 | 0.00 | 0.00 | 0.00 | 89 | 1021.7 | |
| 20260506125030 | 56 | 0.0 | 0.0 | 0.00 | 0.00 | 0.00 | 88 | 1021.7 | |
| 20260506124047 | 56 | 0.0 | 0.0 | 0.00 | 0.00 | 0.00 | 88 | 1021.6 | |
| 20260506123044 | 56 | 0.0 | 0.0 | 0.00 | 0.00 | 0.00 | 88 | 1021.6 | |
| 20260506122020 | 56 | 0.0 | 0.0 | 0.00 | 0.00 | 0.00 | 88 | 1021.6 | |
| 20260506121017 | 56 | 0.0 | 0.0 | 0.00 | 0.00 | 0.00 | 88 | 1021.5 | |
| 20260506120033 | 56 | 0.0 | 0.0 | 0.00 | 0.00 | 0.00 | 88 | 1021.6 | |
| 20260506115031 | 56 | 288 | 0.9 | 0.9 | 0.00 | 0.00 | 0.00 | 88 | 1021.4 |
| 20260506114027 | 56 | 290 | 0.0 | 1.7 | 0.00 | 0.00 | 0.00 | 88 | 1021.3 |
| 20260506113044 | 56 | 341 | 0.0 | 0.9 | 0.00 | 0.00 | 0.00 | 88 | 1021.3 |
| 20260506112020 | 56 | 343 | 0.0 | 1.7 | 0.00 | 0.00 | 0.00 | 88 | 1021.2 |
| 20260506111017 | 56 | 0.0 | 0.0 | 0.00 | 0.00 | 0.00 | 88 | 1021.2 | |
| 20260506110054 | 56 | 0.0 | 0.0 | 0.00 | 0.00 | 0.00 | 88 | 1021.1 | |
| 20260506105031 | 56 | 346 | 0.0 | 1.7 | 0.00 | 0.00 | 0.00 | 88 | 1021.1 |
| 20260506104028 | 56 | 0.0 | 0.0 | 0.00 | 0.00 | 0.00 | 87 | 1020.9 | |
| 20260506103025 | 56 | 0.0 | 0.0 | 0.00 | 0.00 | 0.00 | 87 | 1021.0 | |
| 20260506102122 | 56 | 0.0 | 0.0 | 0.00 | 0.00 | 0.00 | 87 | 1020.9 | |
| 20260506101018 | 56 | 349 | 0.0 | 0.9 | 0.00 | 0.00 | 0.00 | 87 | 1020.9 |
| 20260506100035 | 56 | 349 | 0.0 | 0.9 | 0.00 | 0.00 | 0.00 | 87 | 1020.9 |
| 20260506095052 | 56 | 0.0 | 0.0 | 0.00 | 0.00 | 0.00 | 87 | 1020.9 | |
| 20260506094029 | 56 | 0.0 | 0.0 | 0.00 | 0.00 | 0.00 | 87 | 1020.9 | |
| 20260506093026 | 56 | 0.0 | 0.0 | 0.00 | 0.00 | 0.00 | 87 | 1021.0 | |
| 20260506092023 | 56 | 0.0 | 0.0 | 0.00 | 0.00 | 0.00 | 87 | 1020.9 | |
| 20260506091019 | 56 | 349 | 0.0 | 1.7 | 0.00 | 0.00 | 0.00 | 87 | 1021.0 |
| 20260506090016 | 56 | 339 | 0.0 | 3.5 | 0.00 | 0.00 | 0.00 | 86 | 1021.0 |
| 20260506085033 | 56 | 352 | 0.9 | 1.7 | 0.00 | 0.00 | 0.00 | 86 | 1021.0 |
| 20260506084029 | 56 | 329 | 0.9 | 3.5 | 0.00 | 0.00 | 0.00 | 86 | 1021.0 |
| 20260506083027 | 56 | 334 | 0.9 | 2.6 | 0.00 | 0.00 | 0.00 | 86 | 1020.9 |
| 20260506082023 | 56 | 318 | 0.9 | 1.7 | 0.00 | 0.00 | 0.00 | 86 | 1020.9 |
| 20260506081020 | 56 | 327 | 0.9 | 1.7 | 0.00 | 0.00 | 0.00 | 86 | 1020.9 |
| 20260506073027 | 57 | 315 | 0.9 | 3.5 | 0.00 | 0.00 | 0.00 | 85 | 1020.6 |
| 20260506072024 | 57 | 336 | 0.0 | 0.9 | 0.00 | 0.00 | 0.00 | 84 | 1020.4 |
| 20260506071020 | 57 | 342 | 0.9 | 3.5 | 0.00 | 0.00 | 0.00 | 84 | 1020.4 |
| 20260506062025 | 57 | 339 | 0.9 | 3.5 | 0.00 | 0.00 | 0.00 | 83 | 1019.9 |
| 20260506061021 | 57 | 342 | 0.9 | 1.7 | 0.00 | 0.00 | 0.00 | 83 | 1019.9 |
| 20260506051022 | 57 | 253 | 0.0 | 0.9 | 0.00 | 0.00 | 0.00 | 83 | 1019.7 |
| 20260506045035 | 58 | 253 | 0.0 | 0.9 | 0.00 | 0.00 | 0.00 | 82 | 1019.5 |
| 20260506044031 | 58 | 0.0 | 0.0 | 0.00 | 0.00 | 0.00 | 82 | 1019.3 | |
| 20260506042025 | 58 | 0.0 | 0.0 | 0.00 | 0.00 | 0.00 | 82 | 1019.1 | |
| 20260506041022 | 58 | 0.0 | 0.0 | 0.00 | 0.00 | 0.00 | 82 | 1019.1 | |
| 20260506040018 | 58 | 0.0 | 0.0 | 0.00 | 0.00 | 0.00 | 81 | 1018.9 | |
| 20260506035035 | 58 | 243 | 0.0 | 1.7 | 0.00 | 0.00 | 0.00 | 82 | 1018.9 |
| 20260506034052 | 58 | 256 | 0.0 | 1.7 | 0.00 | 0.00 | 0.00 | 81 | 1018.5 |
| 20260506033029 | 58 | 0.0 | 0.0 | 0.00 | 0.00 | 0.00 | 81 | 1018.5 | |
| 20260506032025 | 58 | 208 | 0.0 | 1.7 | 0.00 | 0.00 | 0.00 | 80 | 1018.3 |
| 20260506031022 | 58 | 185 | 0.9 | 3.5 | 0.00 | 0.00 | 0.00 | 80 | 1018.1 |
| 20260506030019 | 58 | 253 | 0.0 | 1.7 | 0.00 | 0.00 | 0.00 | 80 | 1018.0 |
| 20260506025036 | 58 | 244 | 0.9 | 2.6 | 0.00 | 0.00 | 0.00 | 80 | 1018.0 |
| 20260506024032 | 58 | 290 | 0.9 | 2.6 | 0.00 | 0.00 | 0.00 | 80 | 1018.0 |
| 20260506023029 | 59 | 256 | 1.7 | 7.0 | 0.00 | 0.00 | 0.00 | 80 | 1017.8 |
| 20260506022046 | 59 | 253 | 0.9 | 3.5 | 0.00 | 0.00 | 0.00 | 79 | 1017.7 |
| 20260506021023 | 59 | 236 | 1.7 | 6.1 | 0.00 | 0.00 | 0.00 | 79 | 1017.6 |
| 20260506020020 | 59 | 239 | 2.6 | 6.1 | 0.00 | 0.00 | 0.00 | 79 | 1017.5 |
| 20260506015017 | 60 | 211 | 2.6 | 6.1 | 0.00 | 0.00 | 0.00 | 78 | 1017.4 |
| 20260506014033 | 60 | 256 | 1.7 | 5.2 | 0.00 | 0.00 | 0.00 | 78 | 1017.3 |
| 20260506013030 | 61 | 249 | 1.7 | 7.8 | 0.00 | 0.00 | 0.00 | 78 | 1017.2 |
| 20260506012026 | 61 | 241 | 2.6 | 8.7 | 0.00 | 0.00 | 0.00 | 78 | 1017.1 |
| 20260506011023 | 61 | 223 | 1.7 | 7.8 | 0.00 | 0.00 | 0.00 | 78 | 1017.1 |
| 20260506010040 | 61 | 255 | 1.7 | 7.8 | 0.00 | 0.00 | 0.00 | 78 | 1017.0 |
| 20260506005017 | 62 | 218 | 1.7 | 7.0 | 0.00 | 0.00 | 0.00 | 79 | 1016.9 |
| 20260506004034 | 62 | 215 | 1.7 | 5.2 | 0.00 | 0.00 | 0.00 | 79 | 1016.9 |
| 20260506003031 | 62 | 235 | 1.7 | 3.5 | 0.00 | 0.00 | 0.00 | 79 | 1016.9 |
| 20260506002027 | 62 | 236 | 0.9 | 3.5 | 0.00 | 0.00 | 0.00 | 79 | 1016.9 |
| 20260506001024 | 62 | 249 | 1.7 | 6.1 | 0.00 | 0.00 | 0.00 | 78 | 1016.7 |
| 20260506000021 | 62 | 252 | 1.7 | 6.1 | 0.00 | 0.00 | 0.00 | 78 | 1016.8 |
| 20260505235018 | 62 | 191 | 1.7 | 7.0 | 0.00 | 0.00 | 0.00 | 78 | 1016.7 |
| 20260505234035 | 63 | 224 | 0.9 | 3.5 | 0.00 | 0.00 | 0.00 | 77 | 1016.7 |
| 20260505233032 | 63 | 224 | 2.6 | 7.8 | 0.00 | 0.00 | 0.00 | 77 | 1016.7 |
| 20260505232028 | 63 | 213 | 1.7 | 6.1 | 0.00 | 0.00 | 0.00 | 76 | 1016.6 |
| 20260505231025 | 64 | 209 | 2.6 | 8.7 | 0.00 | 0.00 | 0.00 | 76 | 1016.6 |
| 20260505230021 | 65 | 212 | 2.6 | 7.0 | 0.00 | 0.00 | 0.00 | 76 | 1016.6 |
| 20260505225018 | 65 | 196 | 1.7 | 6.1 | 0.00 | 0.00 | 0.00 | 75 | 1016.6 |
| 20260505224035 | 66 | 222 | 2.6 | 6.1 | 0.00 | 0.00 | 0.00 | 75 | 1016.7 |
| 20260505223032 | 66 | 233 | 2.6 | 6.1 | 0.00 | 0.00 | 0.00 | 75 | 1016.7 |
| 20260505222028 | 66 | 282 | 0.9 | 1.7 | 0.00 | 0.00 | 0.00 | 75 | 1016.8 |
| 20260505221025 | 66 | 337 | 1.7 | 5.2 | 0.00 | 0.00 | 0.00 | 75 | 1016.9 |
| 20260505220022 | 66 | 360 | 0.9 | 3.5 | 0.00 | 0.00 | 0.00 | 75 | 1016.8 |
| 20260505215019 | 65 | 290 | 0.9 | 2.6 | 0.00 | 0.00 | 0.00 | 75 | 1016.9 |
| 20260505214016 | 65 | 280 | 1.7 | 3.5 | 0.00 | 0.00 | 0.00 | 75 | 1017.1 |
| 20260505213033 | 65 | 346 | 0.9 | 3.5 | 0.00 | 0.00 | 0.00 | 76 | 1017.0 |
| 20260505212049 | 65 | 345 | 0.9 | 7.0 | 0.00 | 0.00 | 0.00 | 77 | 1017.1 |
| 20260505211026 | 65 | 313 | 0.9 | 2.6 | 0.00 | 0.00 | 0.00 | 77 | 1017.2 |
| 20260505210022 | 65 | 344 | 0.0 | 0.9 | 0.00 | 0.00 | 0.00 | 76 | 1017.2 |
| 20260505205020 | 64 | 316 | 1.7 | 5.2 | 0.00 | 0.00 | 0.00 | 79 | 1017.3 |
| 20260505204017 | 63 | 300 | 0.9 | 3.5 | 0.00 | 0.00 | 0.00 | 80 | 1017.3 |
| 20260505203113 | 63 | 307 | 0.9 | 1.7 | 0.00 | 0.00 | 0.00 | 80 | 1017.4 |
| 20260505202050 | 63 | 316 | 0.9 | 2.6 | 0.00 | 0.00 | 0.00 | 80 | 1017.5 |
| 20260505201026 | 62 | 294 | 0.9 | 3.5 | 0.00 | 0.00 | 0.00 | 81 | 1017.4 |
| 20260505200023 | 62 | 275 | 0.9 | 1.7 | 0.00 | 0.00 | 0.00 | 82 | 1017.6 |
| 20260505195020 | 62 | 337 | 0.9 | 5.2 | 0.00 | 0.00 | 0.00 | 82 | 1017.5 |
| 20260505194017 | 62 | 347 | 0.9 | 2.6 | 0.00 | 0.00 | 0.00 | 83 | 1017.6 |
| 20260505193034 | 62 | 347 | 0.9 | 1.7 | 0.00 | 0.00 | 0.00 | 82 | 1017.7 |
| 20260505192030 | 62 | 308 | 0.9 | 3.5 | 0.00 | 0.00 | 0.00 | 84 | 1017.6 |
| 20260505191027 | 62 | 339 | 1.7 | 5.2 | 0.00 | 0.00 | 0.00 | 85 | 1017.5 |
| 20260505190024 | 61 | 57 | 1.7 | 2.6 | 0.00 | 0.00 | 0.00 | 87 | 1017.5 |
| 20260505185021 | 61 | 357 | 0.0 | 1.7 | 0.00 | 0.00 | 0.00 | 88 | 1017.5 |
| 20260505184017 | 60 | 350 | 1.7 | 5.2 | 0.00 | 0.00 | 0.00 | 87 | 1017.5 |
| 20260505183034 | 60 | 332 | 0.9 | 2.6 | 0.00 | 0.00 | 0.00 | 86 | 1017.6 |
| 20260505182031 | 60 | 316 | 1.7 | 3.5 | 0.00 | 0.00 | 0.00 | 89 | 1017.7 |
| 20260505181028 | 59 | 335 | 2.6 | 7.0 | 0.00 | 0.00 | 0.00 | 90 | 1017.6 |
| 20260505180024 | 59 | 334 | 2.6 | 5.2 | 0.00 | 0.00 | 0.00 | 91 | 1017.4 |
| 20260505175042 | 58 | 324 | 1.7 | 6.1 | 0.00 | 0.00 | 0.00 | 92 | 1017.5 |
| 20260505174018 | 58 | 342 | 0.9 | 3.5 | 0.00 | 0.00 | 0.00 | 93 | 1017.5 |
| 20260505173035 | 58 | 323 | 1.7 | 7.0 | 0.00 | 0.00 | 0.00 | 94 | 1017.4 |
| 20260505172032 | 57 | 306 | 0.9 | 2.6 | 0.00 | 0.00 | 0.00 | 95 | 1017.3 |
| 20260505171029 | 57 | 264 | 0.0 | 2.6 | 0.00 | 0.00 | 0.00 | 95 | 1017.3 |